| time (UTC) | temp F | wind direction | speed knots | gust knots | rain 1hr in | rain 24hr in | rain mn in | humidity % | barometer mb |
| 20260505184807 | 60 | 205 | 13.0 | 18.2 | 0.00 | 0.00 | 0.00 | 49 | 1013.4 |
| 20260505184304 | 60 | 185 | 10.4 | 16.5 | 0.00 | 0.00 | 0.00 | 50 | 1013.5 |
| 20260505183801 | 60 | 190 | 8.7 | 18.2 | 0.00 | 0.00 | 0.00 | 51 | 1013.5 |
| 20260505183258 | 60 | 213 | 13.9 | 15.6 | 0.00 | 0.00 | 0.00 | 50 | 1013.3 |
| 20260505182755 | 60 | 198 | 17.4 | 21.7 | 0.00 | 0.00 | 0.00 | 50 | 1013.3 |
| 20260505182251 | 60 | 191 | 16.5 | 20.0 | 0.00 | 0.00 | 0.00 | 51 | 1013.4 |
| 20260505181748 | 59 | 191 | 12.2 | 18.2 | 0.00 | 0.00 | 0.00 | 52 | 1013.3 |
| 20260505181246 | 60 | 220 | 13.9 | 16.5 | 0.00 | 0.00 | 0.00 | 52 | 1013.3 |
| 20260505180742 | 59 | 213 | 15.6 | 19.1 | 0.00 | 0.00 | 0.00 | 51 | 1013.2 |
| 20260505180238 | 59 | 186 | 14.8 | 21.7 | 0.00 | 0.00 | 0.00 | 53 | 1013.5 |
| 20260505175735 | 59 | 173 | 13.9 | 19.1 | 0.00 | 0.00 | 0.00 | 52 | 1013.5 |
| 20260505175231 | 59 | 183 | 13.0 | 18.2 | 0.00 | 0.00 | 0.00 | 52 | 1013.4 |
| 20260505174728 | 59 | 203 | 9.6 | 18.2 | 0.00 | 0.00 | 0.00 | 52 | 1013.5 |
| 20260505174225 | 59 | 207 | 13.9 | 21.7 | 0.00 | 0.00 | 0.00 | 54 | 1013.2 |
| 20260505173721 | 59 | 225 | 8.7 | 19.1 | 0.00 | 0.00 | 0.00 | 53 | 1013.3 |
| 20260505173218 | 59 | 193 | 12.2 | 19.1 | 0.00 | 0.00 | 0.00 | 52 | 1013.3 |
| 20260505172715 | 59 | 218 | 9.6 | 13.9 | 0.00 | 0.00 | 0.00 | 52 | 1013.3 |
| 20260505172212 | 58 | 236 | 13.0 | 15.6 | 0.00 | 0.00 | 0.00 | 54 | 1013.3 |
| 20260505171712 | 59 | 190 | 13.9 | 21.7 | 0.00 | 0.00 | 0.00 | 54 | 1013.2 |
| 20260505171209 | 58 | 228 | 13.0 | 19.1 | 0.00 | 0.00 | 0.00 | 53 | 1013.4 |
| 20260505170706 | 58 | 204 | 12.2 | 18.2 | 0.00 | 0.00 | 0.00 | 55 | 1013.2 |
| 20260505170203 | 58 | 198 | 11.3 | 22.6 | 0.00 | 0.00 | 0.00 | 55 | 1013.5 |
| 20260505165703 | 57 | 197 | 11.3 | 18.2 | 0.00 | 0.00 | 0.00 | 56 | 1013.4 |
| 20260505165159 | 57 | 192 | 17.4 | 20.0 | 0.00 | 0.00 | 0.00 | 55 | 1013.2 |
| 20260505164655 | 56 | 181 | 13.0 | 19.1 | 0.00 | 0.00 | 0.00 | 57 | 1013.3 |
| 20260505164153 | 56 | 191 | 14.8 | 20.0 | 0.00 | 0.00 | 0.00 | 56 | 1012.9 |
| 20260505163651 | 56 | 199 | 15.6 | 20.0 | 0.00 | 0.00 | 0.00 | 56 | 1013.1 |
| 20260505163148 | 56 | 193 | 16.5 | 19.1 | 0.00 | 0.00 | 0.00 | 57 | 1013.3 |
| 20260505162646 | 55 | 216 | 13.0 | 16.5 | 0.00 | 0.00 | 0.00 | 59 | 1013.1 |
| 20260505162143 | 54 | 221 | 8.7 | 18.2 | 0.00 | 0.00 | 0.00 | 61 | 1013.1 |
| 20260505161640 | 54 | 184 | 15.6 | 18.2 | 0.00 | 0.00 | 0.00 | 60 | 1013.3 |
| 20260505161137 | 56 | 254 | 10.4 | 16.5 | 0.00 | 0.00 | 0.00 | 58 | 1013.2 |
| 20260505160635 | 55 | 218 | 12.2 | 15.6 | 0.00 | 0.00 | 0.00 | 59 | 1013.3 |
| 20260505160132 | 55 | 240 | 9.6 | 18.2 | 0.00 | 0.00 | 0.00 | 60 | 1013.3 |
| 20260505153112 | 53 | 213 | 5.2 | 10.4 | 0.00 | 0.00 | 0.00 | 66 | 1013.2 |
| 20260505152608 | 53 | 202 | 9.6 | 10.4 | 0.00 | 0.00 | 0.00 | 65 | 1013.2 |
| 20260505152104 | 52 | 190 | 5.2 | 9.6 | 0.00 | 0.00 | 0.00 | 67 | 1013.1 |
| 20260505151559 | 52 | 224 | 7.8 | 13.9 | 0.00 | 0.00 | 0.00 | 66 | 1013.2 |
| 20260505151058 | 52 | 191 | 10.4 | 13.0 | 0.00 | 0.00 | 0.00 | 66 | 1013.3 |
| 20260505150553 | 52 | 216 | 8.7 | 13.9 | 0.00 | 0.00 | 0.00 | 67 | 1013.3 |
| 20260505140519 | 48 | 244 | 4.3 | 8.7 | 0.00 | 0.00 | 0.00 | 73 | 1012.9 |
| 20260505124932 | 47 | 217 | 2.6 | 4.3 | 0.00 | 0.00 | 0.00 | 73 | 1012.5 |
| 20260505124429 | 47 | 169 | 3.5 | 6.1 | 0.00 | 0.00 | 0.00 | 73 | 1012.2 |
| 20260505123925 | 46 | 164 | 2.6 | 4.3 | 0.00 | 0.00 | 0.00 | 74 | 1012.4 |
| 20260505123422 | 46 | 187 | 2.6 | 3.5 | 0.00 | 0.00 | 0.00 | 75 | 1012.2 |
| 20260505122918 | 45 | 268 | 1.7 | 3.5 | 0.00 | 0.00 | 0.00 | 78 | 1012.4 |
| 20260505122415 | 45 | 276 | 0.0 | 3.5 | 0.00 | 0.00 | 0.00 | 79 | 1012.2 |
| 20260505121912 | 45 | 321 | 0.9 | 2.6 | 0.00 | 0.00 | 0.00 | 79 | 1012.1 |
| 20260505121409 | 45 | 340 | 0.0 | 0.0 | 0.00 | 0.00 | 0.00 | 79 | 1012.1 |
| 20260505120905 | 46 | 11 | 0.0 | 0.9 | 0.00 | 0.00 | 0.00 | 78 | 1012.0 |
| 20260505120402 | 46 | 303 | 0.9 | 3.5 | 0.00 | 0.00 | 0.00 | 77 | 1012.0 |
| 20260505115900 | 46 | 206 | 3.5 | 6.1 | 0.00 | 0.00 | 0.00 | 77 | 1012.1 |
| 20260505115357 | 47 | 237 | 2.6 | 6.1 | 0.00 | 0.00 | 0.00 | 76 | 1012.1 |
| 20260505114855 | 47 | 209 | 4.3 | 8.7 | 0.00 | 0.00 | 0.00 | 75 | 1012.1 |
| 20260505114351 | 47 | 207 | 5.2 | 7.0 | 0.00 | 0.00 | 0.00 | 75 | 1011.9 |
| 20260505113848 | 47 | 218 | 4.3 | 8.7 | 0.00 | 0.00 | 0.00 | 75 | 1012.0 |
| 20260505113345 | 47 | 210 | 7.8 | 10.4 | 0.00 | 0.00 | 0.00 | 75 | 1011.9 |
| 20260505112840 | 47 | 257 | 6.1 | 9.6 | 0.00 | 0.00 | 0.00 | 75 | 1011.9 |
| 20260505112338 | 47 | 252 | 6.1 | 8.7 | 0.00 | 0.00 | 0.00 | 76 | 1011.8 |
| 20260505111833 | 46 | 246 | 6.1 | 8.7 | 0.00 | 0.00 | 0.00 | 76 | 1011.9 |
| 20260505111329 | 47 | 230 | 7.0 | 9.6 | 0.00 | 0.00 | 0.00 | 76 | 1011.8 |
| 20260505110825 | 47 | 235 | 7.0 | 8.7 | 0.00 | 0.00 | 0.00 | 76 | 1011.9 |
| 20260505110322 | 47 | 232 | 7.0 | 8.7 | 0.00 | 0.00 | 0.00 | 76 | 1011.8 |
| 20260505101757 | 47 | 248 | 2.6 | 6.1 | 0.00 | 0.00 | 0.00 | 74 | 1011.7 |
| 20260505101253 | 48 | 273 | 3.5 | 6.1 | 0.00 | 0.00 | 0.00 | 73 | 1011.5 |
| 20260505100749 | 47 | 235 | 4.3 | 7.0 | 0.00 | 0.00 | 0.00 | 74 | 1011.8 |
| 20260505100246 | 47 | 265 | 4.3 | 6.1 | 0.00 | 0.00 | 0.00 | 76 | 1011.5 |
| 20260505095741 | 47 | 243 | 6.1 | 8.7 | 0.00 | 0.00 | 0.00 | 76 | 1011.5 |
| 20260505095240 | 47 | 259 | 7.8 | 10.4 | 0.00 | 0.00 | 0.00 | 74 | 1011.7 |
| 20260505094735 | 47 | 249 | 7.8 | 10.4 | 0.00 | 0.00 | 0.00 | 76 | 1011.5 |
| 20260505094232 | 46 | 218 | 6.1 | 9.6 | 0.00 | 0.00 | 0.00 | 78 | 1011.4 |
| 20260505093728 | 46 | 239 | 9.6 | 10.4 | 0.00 | 0.00 | 0.00 | 79 | 1011.7 |
| 20260505093226 | 46 | 268 | 6.1 | 7.0 | 0.00 | 0.00 | 0.00 | 79 | 1011.7 |
| 20260505092722 | 47 | 222 | 7.8 | 12.2 | 0.00 | 0.00 | 0.00 | 79 | 1011.5 |
| 20260505092221 | 46 | 248 | 7.8 | 9.6 | 0.00 | 0.00 | 0.00 | 80 | 1011.8 |
| 20260505091718 | 46 | 244 | 7.8 | 9.6 | 0.00 | 0.00 | 0.00 | 82 | 1011.9 |
| 20260505091216 | 46 | 298 | 3.5 | 4.3 | 0.00 | 0.00 | 0.00 | 81 | 1012.0 |
| 20260505090713 | 46 | 267 | 2.6 | 6.1 | 0.00 | 0.00 | 0.00 | 81 | 1012.0 |
| 20260505090211 | 46 | 239 | 4.3 | 7.0 | 0.00 | 0.00 | 0.00 | 81 | 1012.0 |
| 20260505085708 | 47 | 267 | 7.0 | 9.6 | 0.00 | 0.00 | 0.00 | 79 | 1012.0 |
| 20260505085206 | 48 | 199 | 6.1 | 9.6 | 0.00 | 0.00 | 0.00 | 77 | 1012.0 |
| 20260505084703 | 48 | 221 | 7.0 | 12.2 | 0.00 | 0.00 | 0.00 | 76 | 1012.0 |
| 20260505084202 | 48 | 223 | 7.8 | 12.2 | 0.00 | 0.00 | 0.00 | 77 | 1012.2 |
| 20260505083658 | 48 | 214 | 9.6 | 13.9 | 0.00 | 0.00 | 0.00 | 77 | 1012.2 |
| 20260505083156 | 48 | 252 | 8.7 | 13.9 | 0.00 | 0.00 | 0.00 | 76 | 1012.1 |
| 20260505082651 | 48 | 226 | 6.1 | 13.0 | 0.00 | 0.00 | 0.00 | 77 | 1012.1 |
| 20260505082148 | 48 | 247 | 10.4 | 16.5 | 0.00 | 0.00 | 0.00 | 76 | 1012.0 |
| 20260505081644 | 48 | 257 | 9.6 | 13.0 | 0.00 | 0.00 | 0.00 | 76 | 1012.0 |
| 20260505081142 | 48 | 268 | 8.7 | 13.9 | 0.00 | 0.00 | 0.00 | 75 | 1011.9 |
| 20260505080638 | 48 | 248 | 10.4 | 13.0 | 0.00 | 0.00 | 0.00 | 74 | 1012.0 |
| 20260505080134 | 50 | 253 | 5.2 | 6.1 | 0.00 | 0.00 | 0.00 | 71 | 1012.1 |
| 20260505075631 | 51 | 250 | 7.0 | 12.2 | 0.00 | 0.00 | 0.00 | 67 | 1011.9 |
| 20260505075127 | 51 | 230 | 8.7 | 13.0 | 0.00 | 0.00 | 0.00 | 67 | 1012.1 |
| 20260505074624 | 49 | 220 | 3.5 | 6.1 | 0.00 | 0.00 | 0.00 | 72 | 1012.1 |
| 20260505074121 | 49 | 300 | 1.7 | 2.6 | 0.00 | 0.00 | 0.00 | 73 | 1011.9 |
| 20260505073619 | 50 | 15 | 0.9 | 2.6 | 0.00 | 0.00 | 0.00 | 70 | 1012.0 |
| 20260505073117 | 50 | 29 | 2.6 | 3.5 | 0.00 | 0.00 | 0.00 | 71 | 1011.9 |
| 20260505072612 | 50 | 24 | 1.7 | 3.5 | 0.00 | 0.00 | 0.00 | 70 | 1011.9 |
| 20260505072109 | 51 | 142 | 4.3 | 6.1 | 0.00 | 0.00 | 0.00 | 70 | 1011.9 |
| 20260505071605 | 51 | 164 | 3.5 | 6.1 | 0.00 | 0.00 | 0.00 | 70 | 1011.9 |
| 20260505071103 | 51 | 165 | 3.5 | 4.3 | 0.00 | 0.00 | 0.00 | 71 | 1011.9 |
| 20260505070600 | 51 | 160 | 6.1 | 8.7 | 0.00 | 0.00 | 0.00 | 71 | 1011.8 |
| 20260505070056 | 51 | 226 | 4.3 | 7.0 | 0.00 | 0.00 | 0.00 | 70 | 1011.7 |
| 20260505065552 | 51 | 244 | 4.3 | 7.0 | 0.00 | 0.01 | 0.01 | 70 | 1011.5 |
| 20260505065049 | 51 | 231 | 5.2 | 8.7 | 0.00 | 0.01 | 0.01 | 70 | 1011.7 |
| 20260505064546 | 51 | 234 | 4.3 | 8.7 | 0.00 | 0.01 | 0.01 | 71 | 1011.8 |
| 20260505064045 | 51 | 247 | 5.2 | 8.7 | 0.00 | 0.01 | 0.01 | 72 | 1011.3 |
| 20260505063541 | 52 | 265 | 5.2 | 8.7 | 0.00 | 0.01 | 0.01 | 71 | 1011.3 |
| 20260505063037 | 52 | 215 | 7.0 | 13.0 | 0.00 | 0.01 | 0.01 | 69 | 1011.1 |
| 20260505062533 | 52 | 216 | 11.3 | 15.6 | 0.00 | 0.01 | 0.01 | 69 | 1011.1 |
| 20260505062031 | 52 | 226 | 9.6 | 12.2 | 0.00 | 0.01 | 0.01 | 70 | 1011.1 |
| 20260505061528 | 52 | 224 | 7.8 | 10.4 | 0.00 | 0.01 | 0.01 | 69 | 1011.3 |
| 20260505061026 | 52 | 225 | 6.1 | 9.6 | 0.00 | 0.01 | 0.01 | 69 | 1011.4 |
| 20260505060523 | 52 | 248 | 6.1 | 10.4 | 0.00 | 0.01 | 0.01 | 69 | 1011.2 |
| 20260505060020 | 52 | 210 | 8.7 | 12.2 | 0.00 | 0.01 | 0.01 | 68 | 1011.3 |
| 20260505055515 | 52 | 201 | 6.1 | 10.4 | 0.00 | 0.01 | 0.01 | 68 | 1011.4 |
| 20260505055012 | 52 | 207 | 7.0 | 13.0 | 0.00 | 0.01 | 0.01 | 68 | 1011.3 |
| 20260505054509 | 51 | 193 | 5.2 | 7.0 | 0.00 | 0.01 | 0.01 | 72 | 1011.4 |
| 20260505054008 | 51 | 220 | 2.6 | 7.0 | 0.00 | 0.01 | 0.01 | 73 | 1011.7 |
| 20260505053504 | 51 | 240 | 5.2 | 7.0 | 0.00 | 0.01 | 0.01 | 75 | 1011.4 |
| 20260505053000 | 52 | 301 | 2.6 | 3.5 | 0.00 | 0.01 | 0.01 | 74 | 1011.9 |
| 20260505052458 | 52 | 322 | 0.9 | 0.9 | 0.00 | 0.01 | 0.01 | 72 | 1011.7 |
| 20260505051955 | 53 | 265 | 3.5 | 4.3 | 0.00 | 0.01 | 0.01 | 72 | 1011.8 |
| 20260505051452 | 53 | 115 | 2.6 | 4.3 | 0.00 | 0.01 | 0.01 | 68 | 1011.8 |
| 20260505050950 | 54 | 74 | 2.6 | 7.0 | 0.00 | 0.01 | 0.01 | 62 | 1011.9 |
| 20260505050448 | 53 | 158 | 7.0 | 8.7 | 0.00 | 0.01 | 0.01 | 70 | 1011.5 |
| 20260505041416 | 55 | 79 | 3.5 | 4.3 | 0.00 | 0.01 | 0.01 | 60 | 1012.2 |
| 20260505040913 | 55 | 81 | 2.6 | 4.3 | 0.00 | 0.01 | 0.01 | 63 | 1011.7 |
| 20260505040410 | 55 | 268 | 1.7 | 2.6 | 0.00 | 0.01 | 0.01 | 59 | 1011.7 |
| 20260505035907 | 55 | 187 | 3.5 | 4.3 | 0.00 | 0.01 | 0.01 | 58 | 1011.4 |
| 20260505035403 | 56 | 230 | 2.6 | 4.3 | 0.00 | 0.01 | 0.01 | 58 | 1011.4 |
| 20260505034901 | 56 | 212 | 4.3 | 6.1 | 0.00 | 0.01 | 0.01 | 57 | 1011.2 |
| 20260505034357 | 56 | 208 | 6.1 | 8.7 | 0.00 | 0.01 | 0.01 | 57 | 1011.0 |
| 20260505033854 | 56 | 220 | 5.2 | 7.0 | 0.00 | 0.01 | 0.01 | 59 | 1010.7 |
| 20260505033350 | 56 | 203 | 6.1 | 8.7 | 0.00 | 0.01 | 0.01 | 56 | 1010.7 |
| 20260505032849 | 56 | 197 | 7.8 | 9.6 | 0.00 | 0.01 | 0.01 | 56 | 1010.6 |
| 20260505032345 | 57 | 184 | 6.1 | 9.6 | 0.00 | 0.01 | 0.01 | 57 | 1010.6 |
| 20260505031842 | 57 | 182 | 6.1 | 7.0 | 0.07 | 0.01 | 0.01 | 55 | 1010.5 |
| 20260505031339 | 57 | 153 | 2.6 | 4.3 | 0.07 | 0.01 | 0.01 | 52 | 1010.6 |
| 20260505030836 | 57 | 152 | 5.2 | 9.6 | 0.00 | 0.00 | 0.00 | 56 | 1010.6 |
| 20260505030332 | 57 | 182 | 9.6 | 13.0 | 0.00 | 0.00 | 0.00 | 53 | 1010.7 |
| 20260505025827 | 59 | 186 | 11.3 | 13.9 | 0.00 | 0.00 | 0.00 | 50 | 1010.7 |
| 20260505025325 | 59 | 128 | 11.3 | 13.9 | 0.00 | 0.00 | 0.00 | 42 | 1010.7 |
| 20260505024823 | 59 | 143 | 5.2 | 6.1 | 0.00 | 0.00 | 0.00 | 46 | 1010.7 |
| 20260505024322 | 60 | 334 | 4.3 | 9.6 | 0.00 | 0.00 | 0.00 | 48 | 1010.6 |
| 20260505023818 | 60 | 228 | 9.6 | 20.0 | 0.00 | 0.00 | 0.00 | 42 | 1010.3 |
| 20260505023315 | 63 | 260 | 8.7 | 10.4 | 0.00 | 0.00 | 0.00 | 35 | 1010.4 |
| 20260505022812 | 63 | 227 | 4.3 | 10.4 | 0.00 | 0.00 | 0.00 | 34 | 1010.0 |
| 20260505022309 | 64 | 263 | 3.5 | 4.3 | 0.00 | 0.00 | 0.00 | 33 | 1009.7 |
| 20260505021807 | 64 | 198 | 4.3 | 7.0 | 0.00 | 0.00 | 0.00 | 32 | 1009.4 |
| 20260505021303 | 64 | 225 | 4.3 | 7.0 | 0.00 | 0.00 | 0.00 | 33 | 1009.8 |
| 20260505020759 | 64 | 231 | 6.1 | 8.7 | 0.00 | 0.00 | 0.00 | 36 | 1009.7 |
| 20260505020254 | 63 | 203 | 5.2 | 7.0 | 0.00 | 0.00 | 0.00 | 36 | 1009.5 |
| 20260505015752 | 64 | 208 | 6.1 | 8.7 | 0.00 | 0.00 | 0.00 | 35 | 1009.3 |
| 20260505015249 | 64 | 219 | 7.0 | 9.6 | 0.00 | 0.00 | 0.00 | 34 | 1009.1 |
| 20260505014746 | 64 | 228 | 3.5 | 7.0 | 0.00 | 0.00 | 0.00 | 34 | 1009.0 |
| 20260505014243 | 64 | 243 | 6.1 | 8.7 | 0.00 | 0.00 | 0.00 | 34 | 1009.0 |
| 20260505013739 | 64 | 252 | 7.8 | 10.4 | 0.00 | 0.00 | 0.00 | 34 | 1009.0 |
| 20260505013236 | 64 | 284 | 7.8 | 13.0 | 0.00 | 0.00 | 0.00 | 35 | 1009.0 |
| 20260505012735 | 65 | 266 | 7.8 | 10.4 | 0.00 | 0.00 | 0.00 | 32 | 1009.1 |
| 20260505012232 | 65 | 249 | 7.0 | 12.2 | 0.00 | 0.00 | 0.00 | 32 | 1009.1 |
| 20260505011727 | 65 | 251 | 12.2 | 13.9 | 0.00 | 0.00 | 0.00 | 31 | 1009.1 |
| 20260505011225 | 65 | 241 | 7.8 | 10.4 | 0.00 | 0.00 | 0.00 | 32 | 1009.4 |
| 20260505010720 | 65 | 266 | 9.6 | 13.0 | 0.00 | 0.00 | 0.00 | 33 | 1009.4 |
| 20260505010217 | 66 | 251 | 10.4 | 12.2 | 0.00 | 0.00 | 0.00 | 32 | 1009.4 |
| 20260505005713 | 65 | 247 | 9.6 | 13.0 | 0.00 | 0.00 | 0.00 | 32 | 1009.7 |
| 20260505005210 | 66 | 244 | 9.6 | 12.2 | 0.00 | 0.00 | 0.00 | 32 | 1009.8 |
| 20260505004707 | 65 | 224 | 7.8 | 13.0 | 0.00 | 0.00 | 0.00 | 33 | 1009.3 |
| 20260505004204 | 65 | 236 | 11.3 | 13.0 | 0.00 | 0.00 | 0.00 | 32 | 1009.4 |
| 20260505003702 | 65 | 248 | 11.3 | 18.2 | 0.00 | 0.00 | 0.00 | 34 | 1009.4 |
| 20260505003159 | 65 | 220 | 11.3 | 16.5 | 0.00 | 0.00 | 0.00 | 33 | 1009.2 |
| 20260505002655 | 66 | 200 | 14.8 | 19.1 | 0.00 | 0.00 | 0.00 | 34 | 1009.3 |
| 20260505002153 | 66 | 231 | 13.9 | 18.2 | 0.00 | 0.00 | 0.00 | 35 | 1009.3 |
| 20260505001649 | 65 | 208 | 14.8 | 16.5 | 0.00 | 0.00 | 0.00 | 35 | 1009.3 |
| 20260505001147 | 65 | 231 | 13.0 | 16.5 | 0.00 | 0.00 | 0.00 | 32 | 1009.4 |
| 20260505000644 | 66 | 235 | 17.4 | 19.1 | 0.00 | 0.00 | 0.00 | 32 | 1009.7 |
| 20260505000142 | 66 | 214 | 15.6 | 19.1 | 0.00 | 0.00 | 0.00 | 32 | 1009.5 |
| 20260504235638 | 67 | 221 | 13.0 | 19.1 | 0.00 | 0.00 | 0.00 | 32 | 1009.3 |
| 20260504235129 | 67 | 213 | 11.3 | 21.7 | 0.00 | 0.00 | 0.00 | 32 | 1009.4 |
| 20260504234626 | 66 | 236 | 13.0 | 22.6 | 0.00 | 0.00 | 0.00 | 33 | 1009.5 |
| 20260504234124 | 67 | 203 | 15.6 | 18.2 | 0.00 | 0.00 | 0.00 | 33 | 1009.7 |
| 20260504233620 | 66 | 223 | 11.3 | 23.5 | 0.00 | 0.00 | 0.00 | 34 | 1009.2 |
| 20260504233115 | 68 | 214 | 5.2 | 12.2 | 0.00 | 0.00 | 0.00 | 28 | 1009.3 |
| 20260504232614 | 69 | 283 | 4.3 | 12.2 | 0.00 | 0.00 | 0.00 | 27 | 1009.2 |
| 20260504232110 | 68 | 220 | 14.8 | 18.2 | 0.00 | 0.00 | 0.00 | 30 | 1008.8 |
| 20260504231607 | 68 | 182 | 13.9 | 20.0 | 0.00 | 0.00 | 0.00 | 32 | 1009.2 |
| 20260504231103 | 66 | 187 | 12.2 | 19.1 | 0.00 | 0.00 | 0.00 | 33 | 1009.3 |
| 20260504230559 | 65 | 190 | 14.8 | 21.7 | 0.00 | 0.00 | 0.00 | 35 | 1008.8 |
| 20260504230058 | 65 | 190 | 13.0 | 22.6 | 0.00 | 0.00 | 0.00 | 33 | 1009.1 |
| 20260504225555 | 65 | 197 | 22.6 | 25.2 | 0.00 | 0.00 | 0.00 | 35 | 1009.0 |
| 20260504225052 | 65 | 186 | 18.2 | 26.1 | 0.00 | 0.00 | 0.00 | 33 | 1009.2 |
| 20260504224549 | 66 | 184 | 25.2 | 33.0 | 0.00 | 0.00 | 0.00 | 34 | 1009.3 |
| 20260504224046 | 74 | 104 | 3.5 | 13.0 | 0.00 | 0.00 | 0.00 | 15 | 1008.7 |
| 20260504223543 | 75 | 197 | 3.5 | 4.3 | 0.00 | 0.00 | 0.00 | 15 | 1008.3 |
| 20260504223038 | 75 | 25 | 2.6 | 7.0 | 0.00 | 0.00 | 0.00 | 14 | 1008.3 |
| 20260504222536 | 75 | 39 | 7.8 | 10.4 | 0.00 | 0.00 | 0.00 | 14 | 1008.1 |
| 20260504222033 | 76 | 57 | 6.1 | 9.6 | 0.00 | 0.00 | 0.00 | 13 | 1008.3 |
| 20260504221530 | 75 | 86 | 11.3 | 15.6 | 0.00 | 0.00 | 0.00 | 14 | 1008.4 |
| 20260504221027 | 75 | 117 | 9.6 | 13.0 | 0.00 | 0.00 | 0.00 | 14 | 1008.5 |
| 20260504220524 | 75 | 99 | 13.9 | 16.5 | 0.00 | 0.00 | 0.00 | 13 | 1008.6 |
| 20260504220021 | 74 | 115 | 2.6 | 7.0 | 0.00 | 0.00 | 0.00 | 14 | 1008.4 |
| 20260504215517 | 75 | 28 | 6.1 | 10.4 | 0.00 | 0.00 | 0.00 | 15 | 1008.5 |
| 20260504215015 | 74 | 334 | 8.7 | 10.4 | 0.00 | 0.00 | 0.00 | 15 | 1008.7 |
| 20260504214510 | 74 | 37 | 7.8 | 12.2 | 0.00 | 0.00 | 0.00 | 16 | 1008.7 |
| 20260504214007 | 76 | 54 | 11.3 | 19.1 | 0.00 | 0.00 | 0.00 | 15 | 1008.7 |
| 20260504213503 | 73 | 183 | 5.2 | 13.0 | 0.00 | 0.00 | 0.00 | 16 | 1008.7 |
| 20260504213001 | 73 | 160 | 9.6 | 12.2 | 0.00 | 0.00 | 0.00 | 16 | 1009.0 |
| 20260504212456 | 73 | 104 | 6.1 | 7.0 | 0.00 | 0.00 | 0.00 | 17 | 1009.1 |
| 20260504211954 | 72 | 63 | 9.6 | 10.4 | 0.00 | 0.00 | 0.00 | 17 | 1009.1 |
| 20260504211450 | 72 | 326 | 2.6 | 7.0 | 0.00 | 0.00 | 0.00 | 16 | 1009.4 |
| 20260504210948 | 73 | 59 | 4.3 | 9.6 | 0.00 | 0.00 | 0.00 | 16 | 1009.1 |
| 20260504210444 | 74 | 49 | 9.6 | 13.9 | 0.00 | 0.00 | 0.00 | 15 | 1009.4 |
| 20260504205941 | 73 | 359 | 3.5 | 4.3 | 0.00 | 0.00 | 0.00 | 18 | 1009.5 |
| 20260504205439 | 74 | 53 | 7.0 | 12.2 | 0.00 | 0.00 | 0.00 | 17 | 1009.7 |
| 20260504204937 | 74 | 117 | 14.8 | 25.2 | 0.00 | 0.00 | 0.00 | 18 | 1009.5 |
| 20260504204435 | 73 | 217 | 4.3 | 6.1 | 0.00 | 0.00 | 0.00 | 17 | 1009.7 |
| 20260504203934 | 73 | 335 | 6.1 | 9.6 | 0.00 | 0.00 | 0.00 | 17 | 1009.8 |
| 20260504203431 | 73 | 331 | 3.5 | 8.7 | 0.00 | 0.00 | 0.00 | 17 | 1010.0 |
| 20260504202927 | 73 | 353 | 6.1 | 8.7 | 0.00 | 0.00 | 0.00 | 19 | 1009.8 |
| 20260504202424 | 73 | 86 | 7.0 | 10.4 | 0.00 | 0.00 | 0.00 | 19 | 1010.0 |
| 20260504201921 | 72 | 327 | 2.6 | 7.0 | 0.00 | 0.00 | 0.00 | 19 | 1010.4 |
| 20260504201418 | 71 | 44 | 5.2 | 7.0 | 0.00 | 0.00 | 0.00 | 19 | 1010.1 |
| 20260504200915 | 71 | 178 | 4.3 | 8.7 | 0.00 | 0.00 | 0.00 | 20 | 1010.4 |
| 20260504200412 | 71 | 74 | 7.0 | 8.7 | 0.00 | 0.00 | 0.00 | 20 | 1010.7 |
| 20260504195909 | 70 | 139 | 2.6 | 7.0 | 0.00 | 0.00 | 0.00 | 21 | 1010.5 |
| 20260504195404 | 71 | 165 | 4.3 | 9.6 | 0.00 | 0.00 | 0.00 | 21 | 1010.6 |
| 20260504194901 | 71 | 141 | 6.1 | 8.7 | 0.00 | 0.00 | 0.00 | 22 | 1010.6 |
| 20260504194357 | 71 | 213 | 8.7 | 10.4 | 0.00 | 0.00 | 0.00 | 21 | 1010.6 |
| 20260504193853 | 71 | 243 | 7.0 | 8.7 | 0.00 | 0.00 | 0.00 | 22 | 1010.7 |
| 20260504193350 | 69 | 191 | 4.3 | 7.0 | 0.00 | 0.00 | 0.00 | 22 | 1011.1 |
| 20260504192849 | 70 | 211 | 6.1 | 7.0 | 0.00 | 0.00 | 0.00 | 22 | 1011.0 |
| 20260504192347 | 70 | 179 | 8.7 | 10.4 | 0.00 | 0.00 | 0.00 | 22 | 1011.2 |
| 20260504191845 | 70 | 176 | 7.8 | 8.7 | 0.00 | 0.00 | 0.00 | 22 | 1011.4 |
| 20260504191343 | 69 | 196 | 5.2 | 7.0 | 0.00 | 0.00 | 0.00 | 22 | 1011.3 |
| 20260504190838 | 70 | 180 | 6.1 | 8.7 | 0.00 | 0.00 | 0.00 | 22 | 1011.2 |
| 20260504190334 | 68 | 128 | 4.3 | 8.7 | 0.00 | 0.00 | 0.00 | 24 | 1011.3 |
| 20260504185831 | 68 | 153 | 7.0 | 8.7 | 0.00 | 0.00 | 0.00 | 24 | 1011.4 |
| 20260504185328 | 69 | 172 | 7.8 | 9.6 | 0.00 | 0.00 | 0.00 | 24 | 1011.3 |